Change the Weather History Date:

Thursday, December 25, 2014

  Actual Average Record
Temperature  
Mean Temperature 36 °F -  
Max Temperature 39 °F 35 °F 50 °F (2011)
Min Temperature 31 °F 20 °F -13 °F (2004)
Degree Days  
Heating Degree Days 30    
Moisture  
Dew Point 32 °F    
Average Humidity 83    
Maximum Humidity 93    
Minimum Humidity 71    
Precipitation  
Precipitation 0.00 in - - ()
Sea Level Pressure  
Sea Level Pressure 30.00 in    
Wind  
Wind Speed 14 mph (SW)    
Max Wind Speed 20 mph    
Max Gust Speed 28 mph    
Visibility 10 miles    
Events Rain    
Averages and records for this station are not official NWS values.
T = Trace of Precipitation, MM = Missing Value Source: NWS Daily Summary

Daily Weather History Graph

Daily Weather History Graph

Search for Another Location

Airport or City:

Trip Planner

Search our weather history database for the weather conditions in past years. The results will help you decide how hot, cold, wet, or windy it might be!

Date:

Astronomy

Dec. 25, 2014 Rise Set
Actual Time 7:55 AM EST 5:16 PM EST
Civil Twilight 7:25 AM EST 5:47 PM EST
Nautical Twilight 6:51 AM EST 6:21 PM EST
Astronomical Twilight 6:18 AM EST 6:54 PM EST
Moon 10:28 AM EST (12/25) 9:49 PM EST (12/25)
Length of Visible Light 10h 22m
Length of Day
9h 21m
Waxing Crescent, 17% of the Moon is Illuminated
Dec 25
Waxing Crescent
Dec 28
First Quarter
Jan 4
Full
Jan 13
Last Quarter
Jan 20
New

Hourly Weather History & Observations

Time (EST) Temp. Windchill Dew Point Humidity Pressure Visibility Wind Dir Wind Speed Gust Speed Precip Events Conditions
12:58 AM 38.5 °F 29.6 °F 35.2 °F 88% 29.71 in 10.0 mi SW 16.1 mph - N/A   Overcast
1:08 AM 39.2 °F 29.6 °F 33.8 °F 81% 29.69 in 10.0 mi SW 19.6 mph 24.2 mph N/A   Overcast
1:58 AM 38.5 °F 30.3 °F 33.8 °F 83% 29.74 in 10.0 mi WSW 13.8 mph 21.9 mph N/A   Overcast
2:08 AM 39.2 °F 29.6 °F 33.8 °F 81% 29.73 in 10.0 mi SW 19.6 mph 23.0 mph N/A   Overcast
2:18 AM 37.4 °F 28.9 °F 35.6 °F 93% 29.74 in 10.0 mi WSW 13.8 mph 26.5 mph N/A Rain Light Rain
2:58 AM 37.4 °F 28.5 °F 33.8 °F 87% 29.79 in 10.0 mi SW 15.0 mph 23.0 mph 0.00 in   Mostly Cloudy
3:08 AM 37.4 °F 27.8 °F 33.8 °F 87% 29.77 in 10.0 mi WSW 17.3 mph - N/A   Overcast
3:57 AM 37.4 °F 28.5 °F 33.8 °F 87% 29.80 in 10.0 mi WSW 15.0 mph 23.0 mph N/A Rain Light Rain
3:58 AM 37.6 °F 28.4 °F 33.8 °F 86% 29.82 in 10.0 mi WSW 16.1 mph - 0.00 in Rain Light Rain
4:08 AM 37.4 °F 28.5 °F 33.8 °F 87% 29.81 in 10.0 mi WSW 15.0 mph - N/A   Overcast
4:58 AM 37.0 °F 28.1 °F 34.0 °F 89% 29.86 in 10.0 mi SW 15.0 mph 23.0 mph 0.00 in   Overcast
5:28 AM 37.4 °F 28.9 °F 32.0 °F 81% 29.84 in 10.0 mi WSW 13.8 mph - N/A   Mostly Cloudy
5:58 AM 37.4 °F 28.2 °F 33.3 °F 85% 29.90 in 10.0 mi WSW 16.1 mph 23.0 mph N/A   Overcast
6:58 AM 37.0 °F 29.3 °F 33.6 °F 87% 29.95 in 10.0 mi WSW 11.5 mph - N/A   Overcast
7:18 AM 37.4 °F 28.9 °F 33.8 °F 87% 29.93 in 10.0 mi WSW 13.8 mph - N/A Rain Light Rain
7:28 AM 37.4 °F 29.3 °F 32.0 °F 81% 29.94 in 10.0 mi WSW 12.7 mph 19.6 mph N/A   Overcast
7:58 AM 36.1 °F 27.7 °F 33.4 °F 90% 29.99 in 10.0 mi WSW 12.7 mph 21.9 mph 0.00 in Rain Light Rain
8:18 AM 35.6 °F 26.2 °F 32.0 °F 87% 29.98 in 10.0 mi WSW 15.0 mph 27.6 mph N/A Rain Light Rain
8:50 AM 35.6 °F 27.1 °F 32.0 °F 87% 30.00 in 10.0 mi West 12.7 mph - N/A   Overcast
8:58 AM 36.5 °F 27.8 °F 30.4 °F 78% 30.04 in 10.0 mi WSW 13.8 mph 21.9 mph 0.00 in   Overcast
9:38 AM 37.4 °F 29.8 °F 32.0 °F 81% 30.03 in 10.0 mi SW 11.5 mph - N/A   Overcast
9:58 AM 37.2 °F 30.0 °F 31.3 °F 79% 30.07 in 10.0 mi SW 10.4 mph - N/A   Overcast
10:08 AM 37.4 °F 29.8 °F 32.0 °F 81% 30.05 in 10.0 mi WSW 11.5 mph - N/A   Overcast
10:58 AM 37.9 °F 29.6 °F 32.0 °F 79% 30.11 in 10.0 mi WSW 13.8 mph - N/A   Overcast
11:58 AM 38.7 °F 29.8 °F 31.3 °F 75% 30.12 in 10.0 mi SW 16.1 mph - N/A   Overcast
12:38 PM 37.4 °F 28.5 °F 33.8 °F 87% 30.09 in 10.0 mi SW 15.0 mph - N/A Rain Light Rain
12:58 PM 37.9 °F 30.5 °F 34.3 °F 87% 30.11 in 9.0 mi SW 11.5 mph - 0.00 in Rain Light Rain
1:18 PM 39.2 °F 31.6 °F 32.0 °F 75% 30.08 in 10.0 mi SW 12.7 mph - N/A   Overcast
1:58 PM 39.0 °F 31.0 °F 32.0 °F 76% 30.11 in 10.0 mi SW 13.8 mph - 0.00 in   Overcast
2:58 PM 39.4 °F 30.7 °F 31.1 °F 72% 30.13 in 10.0 mi SSW 16.1 mph - N/A   Overcast
3:58 PM 39.7 °F 33.2 °F 31.6 °F 73% 30.14 in 10.0 mi SSW 10.4 mph - N/A   Overcast
4:58 PM 39.7 °F 33.2 °F 32.2 °F 74% 30.16 in 10.0 mi SSW 10.4 mph - N/A   Overcast
5:58 PM 39.4 °F 31.4 °F 30.6 °F 71% 30.20 in 10.0 mi SSW 13.8 mph - N/A   Overcast
6:58 PM 39.0 °F 32.3 °F 30.7 °F 72% 30.22 in 10.0 mi SSW 10.4 mph - N/A   Overcast
7:38 PM 35.6 °F 30.7 °F 30.2 °F 81% 30.19 in 10.0 mi South 5.8 mph - N/A   Scattered Clouds
7:58 PM 34.7 °F 30.6 °F 29.3 °F 81% 30.22 in 10.0 mi South 4.6 mph - N/A   Scattered Clouds
8:58 PM 34.3 °F 28.4 °F 30.0 °F 84% 30.21 in 10.0 mi SE 6.9 mph - N/A   Clear
9:58 PM 33.8 °F 27.0 °F 30.0 °F 86% 30.21 in 10.0 mi SE 8.1 mph - N/A   Clear
10:58 PM 32.5 °F 27.1 °F 29.5 °F 88% 30.20 in 10.0 mi SE 5.8 mph - N/A   Clear
11:58 PM 31.3 °F - 28.9 °F 91% 30.20 in 10.0 mi South 1.2 mph - N/A   Clear